07-09-2022, 00:00:08,    174,    0.0,   13.1,   0.00,   0.00, 1006.1,   93.1, -999.0
07-09-2022, 00:00:18,    174,    0.0,   13.1,   0.00,   0.00, 1006.2,   93.0, -999.0
07-09-2022, 00:00:28,    174,    0.0,   13.1,   0.00,   0.00, 1006.2,   92.9, -999.0
07-09-2022, 00:00:38,    174,    0.0,   13.2,   0.00,   0.00, 1006.2,   93.1, -999.0
07-09-2022, 00:00:48,    174,    0.0,   13.1,   0.00,   0.00, 1006.1,   93.3, -999.0
07-09-2022, 00:00:58,    173,    0.0,   13.2,   0.00,   0.00, 1006.1,   93.5, -999.0
07-09-2022, 00:01:08,    174,    0.0,   13.2,   0.00,   0.00, 1006.1,   93.6, -999.0
07-09-2022, 00:01:18,    174,    0.0,   13.1,   0.00,   0.00, 1006.1,   93.8, -999.0
07-09-2022, 00:01:28,    174,    0.0,   13.2,   0.00,   0.00, 1006.1,   93.7, -999.0
07-09-2022, 00:01:38,    174,    0.0,   13.2,   0.00,   0.00, 1006.1,   93.4, -999.0
07-09-2022, 00:01:47,    174,    0.0,   13.2,   0.00,   0.00, 1006.1,   93.4, -999.0
07-09-2022, 00:01:58,    174,    0.0,   13.2,   0.00,   0.00, 1006.1,   93.2, -999.0
07-09-2022, 00:02:07,    174,    0.0,   13.2,   0.00,   0.00, 1006.1,   93.1, -999.0
07-09-2022, 00:02:17,    174,    0.0,   13.2,   0.00,   0.00, 1006.2,   93.2, -999.0
07-09-2022, 00:02:27,    174,    0.0,   13.2,   0.00,   0.00, 1006.1,   93.2, -999.0
07-09-2022, 00:02:37,    174,    0.0,   13.3,   0.00,   0.00, 1006.1,   93.0, -999.0
07-09-2022, 00:02:47,    174,    0.0,   13.3,   0.00,   0.00, 1006.1,   93.0, -999.0
07-09-2022, 00:02:57,    174,    0.0,   13.3,   0.00,   0.01, 1006.2,   92.9, -999.0
07-09-2022, 00:03:07,    174,    0.0,   13.1,   0.00,   0.00, 1006.1,   92.9, -999.0
07-09-2022, 00:03:17,    174,    0.0,   13.2,   0.00,   0.00, 1006.1,   92.7, -999.0
07-09-2022, 00:03:27,    174,    0.0,   13.3,   0.00,   0.00, 1006.1,   92.6, -999.0
07-09-2022, 00:03:37,    174,    0.0,   13.2,   0.00,   0.00, 1006.1,   92.7, -999.0
07-09-2022, 00:03:47,    169,    0.0,   13.2,   0.00,   0.00, 1006.1,   92.5, -999.0
07-09-2022, 00:03:57,    174,    0.0,   13.2,   0.00,   0.00, 1006.1,   92.2, -999.0
07-09-2022, 00:04:07,    174,    0.0,   13.2,   0.00,   0.00, 1006.1,   92.0, -999.0
07-09-2022, 00:04:17,    172,    0.0,   13.1,   0.00,   0.00, 1006.1,   91.9, -999.0
07-09-2022, 00:04:27,    174,    0.0,   13.2,   0.00,   0.00, 1006.1,   92.0, -999.0
07-09-2022, 00:04:37,    174,    0.0,   13.1,   0.00,   0.00, 1006.1,   92.0, -999.0
07-09-2022, 00:04:46,    174,    0.0,   13.1,   0.00,   0.00, 1006.1,   92.3, -999.0
07-09-2022, 00:04:56,    174,    0.0,   13.2,   0.00,   0.00, 1006.1,   92.1, -999.0
07-09-2022, 00:05:07,    174,    0.0,   13.1,   0.00,   0.00, 1006.1,   92.0, -999.0
07-09-2022, 00:05:16,    174,    0.0,   13.2,   0.00,   0.00, 1006.1,   91.8, -999.0
07-09-2022, 00:05:26,    174,    0.0,   13.2,   0.00,   0.00, 1006.1,   91.8, -999.0
07-09-2022, 00:05:36,    174,    0.0,   13.2,   0.00,   0.00, 1006.1,   91.9, -999.0
07-09-2022, 00:05:46,    173,    0.0,   13.1,   0.00,   0.00, 1006.1,   91.9, -999.0
07-09-2022, 00:05:56,    174,    0.0,   13.1,   0.00,   0.00, 1006.1,   91.7, -999.0
07-09-2022, 00:06:06,    174,    0.0,   13.1,   0.00,   0.00, 1006.1,   91.8, -999.0
07-09-2022, 00:06:16,    174,    0.0,   13.1,   0.00,   0.00, 1006.1,   92.0, -999.0
07-09-2022, 00:06:26,    174,    0.0,   13.2,   0.00,   0.00, 1006.1,   92.2, -999.0
07-09-2022, 00:06:36,    173,    0.0,   13.1,   0.00,   0.00, 1006.1,   92.4, -999.0
07-09-2022, 00:06:46,    174,    0.0,   13.3,   0.00,   0.00, 1006.1,   92.7, -999.0
07-09-2022, 00:06:56,    174,    0.0,   13.2,   0.00,   0.00, 1006.1,   92.7, -999.0
07-09-2022, 00:07:06,    174,    0.0,   13.2,   0.00,   0.00, 1006.1,   92.6, -999.0
07-09-2022, 00:07:16,    174,    0.0,   13.3,   0.00,   0.00, 1006.1,   92.3, -999.0
07-09-2022, 00:07:25,    173,    0.0,   13.3,   0.00,   0.00, 1006.1,   92.3, -999.0
07-09-2022, 00:07:36,    174,    0.0,   13.3,   0.00,   0.00, 1006.1,   92.1, -999.0
07-09-2022, 00:07:46,    174,    0.0,   13.2,   0.00,   0.00, 1006.1,   91.9, -999.0
07-09-2022, 00:07:55,    174,    0.0,   13.2,   0.00,   0.00, 1006.1,   91.8, -999.0
07-09-2022, 00:08:05,    174,    0.0,   13.2,   0.00,   0.00, 1006.1,   91.8, -999.0
07-09-2022, 00:08:16,    174,    0.0,   13.2,   0.00,   0.00, 1006.1,   91.9, -999.0
07-09-2022, 00:08:25,    174,    0.0,   13.2,   0.00,   0.00, 1006.1,   91.9, -999.0
07-09-2022, 00:08:35,    173,    0.0,   13.2,   0.00,   0.00, 1006.1,   91.9, -999.0
07-09-2022, 00:08:45,    174,    0.0,   13.2,   0.00,   0.00, 1006.1,   91.7, -999.0
07-09-2022, 00:08:55,    174,    0.0,   13.1,   0.00,   0.00, 1006.1,   91.6, -999.0
07-09-2022, 00:09:05,    173,    0.0,   13.2,   0.00,   0.00, 1006.1,   91.6, -999.0
07-09-2022, 00:09:15,    174,    0.0,   13.1,   0.00,   0.00, 1006.1,   91.4, -999.0
07-09-2022, 00:09:25,    174,    0.0,   13.1,   0.00,   0.00, 1006.1,   91.4, -999.0
07-09-2022, 00:09:35,    174,    0.0,   13.1,   0.00,   0.00, 1006.1,   91.4, -999.0
07-09-2022, 00:09:45,    174,    0.0,   13.1,   0.00,   0.00, 1006.1,   91.4, -999.0
07-09-2022, 00:09:55,    174,    0.0,   13.0,   0.00,   0.00, 1006.1,   91.4, -999.0
07-09-2022, 00:10:05,    174,    0.0,   13.1,   0.00,   0.00, 1006.1,   91.5, -999.0
07-09-2022, 00:10:15,    173,    0.0,   13.1,   0.00,   0.00, 1006.1,   91.6, -999.0
07-09-2022, 00:10:25,    174,    0.0,   13.1,   0.00,   0.00, 1006.1,   91.6, -999.0
07-09-2022, 00:10:35,    171,    0.0,   13.1,   0.00,   0.00, 1006.1,   91.6, -999.0
07-09-2022, 00:10:45,    174,    0.0,   13.1,   0.00,   0.00, 1006.1,   91.8, -999.0
07-09-2022, 00:10:55,    174,    0.0,   13.1,   0.00,   0.00, 1006.1,   91.7, -999.0
07-09-2022, 00:11:04,    174,    0.0,   13.1,   0.00,   0.00, 1006.1,   91.8, -999.0
07-09-2022, 00:11:15,    174,    0.0,   13.0,   0.00,   0.00, 1006.1,   91.7, -999.0
07-09-2022, 00:11:24,    174,    0.0,   13.0,   0.00,   0.00, 1006.1,   91.6, -999.0
07-09-2022, 00:11:34,    174,    0.0,   13.0,   0.00,   0.00, 1006.1,   91.5, -999.0
07-09-2022, 00:11:44,    174,    0.0,   13.0,   0.00,   0.00, 1006.1,   91.6, -999.0
07-09-2022, 00:11:54,    174,    0.0,   13.1,   0.00,   0.00, 1006.1,   91.9, -999.0
07-09-2022, 00:12:04,    174,    0.0,   13.3,   0.00,   0.00, 1006.0,   92.0, -999.0
07-09-2022, 00:12:14,    174,    0.0,   13.2,   0.00,   0.00, 1006.1,   92.3, -999.0
07-09-2022, 00:12:24,    174,    0.0,   13.1,   0.00,   0.00, 1006.0,   92.5, -999.0
07-09-2022, 00:12:34,    173,    0.0,   13.2,   0.00,   0.00, 1006.0,   92.5, -999.0
07-09-2022, 00:12:44,    174,    0.0,   13.2,   0.00,   0.00, 1006.0,   92.3, -999.0
07-09-2022, 00:12:54,    174,    0.0,   13.2,   0.00,   0.00, 1006.1,   92.0, -999.0
07-09-2022, 00:13:04,    174,    0.0,   13.2,   0.00,   0.00, 1006.0,   92.1, -999.0
07-09-2022, 00:13:14,    174,    0.0,   13.1,   0.00,   0.00, 1006.0,   92.0, -999.0
07-09-2022, 00:13:24,    174,    0.0,   13.1,   0.00,   0.00, 1006.0,   91.8, -999.0
07-09-2022, 00:13:33,    174,    0.0,   13.1,   0.00,   0.00, 1006.1,   91.8, -999.0
07-09-2022, 00:13:44,    174,    0.0,   13.0,   0.00,   0.00, 1006.0,   91.7, -999.0
07-09-2022, 00:13:54,    174,    0.0,   13.1,   0.00,   0.00, 1006.0,   91.7, -999.0
07-09-2022, 00:14:03,    174,    0.0,   13.2,   0.00,   0.00, 1006.0,   91.8, -999.0
07-09-2022, 00:14:13,    174,    0.0,   13.2,   0.00,   0.00, 1006.1,   91.8, -999.0
07-09-2022, 00:14:24,    174,    0.0,   13.1,   0.00,   0.00, 1006.1,   91.9, -999.0
07-09-2022, 00:14:33,    174,    0.0,   13.1,   0.00,   0.00, 1006.0,   92.0, -999.0
07-09-2022, 00:14:43,    174,    0.0,   13.2,   0.00,   0.00, 1006.0,   91.9, -999.0
07-09-2022, 00:14:53,    174,    0.0,   13.2,   0.00,   0.00, 1006.1,   91.9, -999.0
07-09-2022, 00:15:03,    173,    0.0,   13.1,   0.00,   0.00, 1006.0,   91.8, -999.0
07-09-2022, 00:15:13,    173,    0.0,   13.1,   0.00,   0.00, 1006.0,   91.7, -999.0
07-09-2022, 00:15:23,    174,    0.0,   13.1,   0.00,   0.00, 1006.0,   91.7, -999.0
07-09-2022, 00:15:33,    174,    0.0,   13.1,   0.00,   0.00, 1006.0,   91.6, -999.0
07-09-2022, 00:15:43,    173,    0.0,   13.0,   0.00,   0.00, 1006.0,   91.5, -999.0
07-09-2022, 00:15:53,    174,    0.0,   13.0,   0.00,   0.00, 1006.0,   91.4, -999.0
07-09-2022, 00:16:03,    174,    0.0,   13.1,   0.00,   0.00, 1006.0,   91.6, -999.0
07-09-2022, 00:16:13,    174,    0.0,   13.1,   0.00,   0.00, 1006.1,   91.7, -999.0
07-09-2022, 00:16:23,    174,    0.0,   13.1,   0.00,   0.00, 1006.0,   91.9, -999.0
07-09-2022, 00:16:33,    174,    0.0,   13.1,   0.00,   0.00, 1006.0,   91.9, -999.0
07-09-2022, 00:16:43,    174,    0.0,   13.1,   0.00,   0.00, 1006.0,   91.9, -999.0
07-09-2022, 00:16:53,    173,    0.0,   13.1,   0.00,   0.00, 1006.0,   92.0, -999.0
07-09-2022, 00:17:03,    174,    0.0,   13.1,   0.00,   0.00, 1006.0,   92.1, -999.0
07-09-2022, 00:17:12,    174,    0.0,   13.1,   0.00,   0.00, 1006.0,   92.2, -999.0
07-09-2022, 00:17:23,    174,    0.0,   13.1,   0.00,   0.00, 1006.0,   92.2, -999.0
07-09-2022, 00:17:32,    174,    0.0,   13.1,   0.00,   0.00, 1006.0,   92.1, -999.0
07-09-2022, 00:17:42,    172,    0.0,   13.0,   0.00,   0.00, 1006.0,   92.1, -999.0
07-09-2022, 00:17:52,    174,    0.0,   13.1,   0.00,   0.00, 1006.0,   92.3, -999.0
07-09-2022, 00:18:02,    174,    0.0,   13.2,   0.00,   0.00, 1006.0,   92.5, -999.0
07-09-2022, 00:18:12,    174,    0.0,   13.1,   0.00,   0.00, 1006.0,   92.4, -999.0
07-09-2022, 00:18:22,    173,    0.0,   13.1,   0.00,   0.00, 1006.0,   92.3, -999.0
07-09-2022, 00:18:32,    173,    0.0,   13.1,   0.00,   0.00, 1006.0,   92.3, -999.0
07-09-2022, 00:18:42,    174,    0.0,   13.1,   0.00,   0.00, 1006.0,   92.2, -999.0
07-09-2022, 00:18:52,    174,    0.0,   13.1,   0.00,   0.00, 1006.0,   92.1, -999.0
07-09-2022, 00:19:02,    174,    0.0,   13.1,   0.00,   0.00, 1006.0,   92.1, -999.0
07-09-2022, 00:19:12,    174,    0.0,   13.0,   0.00,   0.00, 1006.0,   91.9, -999.0
07-09-2022, 00:19:22,    174,    0.0,   13.1,   0.00,   0.00, 1006.0,   91.9, -999.0
07-09-2022, 00:19:32,    173,    0.0,   13.0,   0.00,   0.00, 1006.0,   91.9, -999.0
07-09-2022, 00:19:42,    173,    0.0,   13.1,   0.00,   0.00, 1006.0,   92.0, -999.0
07-09-2022, 00:19:52,    174,    0.0,   13.2,   0.00,   0.00, 1006.0,   92.0, -999.0
07-09-2022, 00:20:02,    174,    0.0,   13.0,   0.00,   0.00, 1006.0,   92.0, -999.0
07-09-2022, 00:20:11,    174,    0.0,   13.0,   0.00,   0.00, 1006.0,   92.0, -999.0
07-09-2022, 00:20:21,    174,    0.0,   13.0,   0.00,   0.00, 1006.0,   91.9, -999.0
07-09-2022, 00:20:32,    174,    0.0,   13.0,   0.00,   0.00, 1006.0,   91.9, -999.0
07-09-2022, 00:20:41,    172,    0.0,   12.9,   0.00,   0.00, 1006.0,   91.8, -999.0
07-09-2022, 00:20:51,    174,    0.0,   13.0,   0.00,   0.00, 1006.0,   91.7, -999.0
07-09-2022, 00:21:01,    174,    0.0,   13.0,   0.00,   0.00, 1006.0,   91.8, -999.0
07-09-2022, 00:21:11,    174,    0.0,   12.9,   0.00,   0.00, 1005.9,   91.9, -999.0
07-09-2022, 00:21:21,    174,    0.0,   12.9,   0.00,   0.00, 1006.0,   92.1, -999.0
07-09-2022, 00:21:31,    174,    0.0,   13.0,   0.00,   0.00, 1005.9,   92.1, -999.0
07-09-2022, 00:21:41,    174,    0.0,   13.0,   0.00,   0.00, 1005.9,   92.1, -999.0
07-09-2022, 00:21:51,    174,    0.0,   13.0,   0.00,   0.00, 1005.9,   92.3, -999.0
07-09-2022, 00:22:01,    174,    0.0,   13.0,   0.00,   0.00, 1005.9,   92.2, -999.0
07-09-2022, 00:22:11,    173,    0.0,   13.0,   0.00,   0.00, 1006.0,   92.4, -999.0
07-09-2022, 00:22:21,    174,    0.0,   13.0,   0.00,   0.00, 1005.9,   92.6, -999.0
07-09-2022, 00:22:31,    174,    0.0,   13.0,   0.00,   0.00, 1005.9,   92.7, -999.0
07-09-2022, 00:22:41,    174,    0.0,   13.0,   0.00,   0.00, 1005.9,   92.7, -999.0
07-09-2022, 00:22:50,    174,    0.0,   13.0,   0.00,   0.00, 1005.9,   92.6, -999.0
07-09-2022, 00:23:01,    174,    0.0,   13.0,   0.00,   0.00, 1005.9,   92.6, -999.0
07-09-2022, 00:23:11,    174,    0.0,   13.0,   0.00,   0.00, 1006.0,   92.7, -999.0
07-09-2022, 00:23:20,    174,    0.0,   13.0,   0.00,   0.00, 1005.9,   92.7, -999.0
07-09-2022, 00:23:30,    174,    0.0,   12.9,   0.00,   0.00, 1005.9,   92.8, -999.0
07-09-2022, 00:23:41,    174,    0.0,   13.0,   0.00,   0.00, 1005.9,   93.0, -999.0
07-09-2022, 00:23:50,    174,    0.0,   12.9,   0.00,   0.00, 1005.9,   93.0, -999.0
07-09-2022, 00:24:00,    174,    0.0,   13.1,   0.00,   0.00, 1005.9,   93.1, -999.0
07-09-2022, 00:24:10,    174,    0.0,   13.0,   0.00,   0.00, 1005.9,   93.2, -999.0
07-09-2022, 00:24:20,    173,    0.0,   12.9,   0.00,   0.00, 1005.9,   93.2, -999.0
07-09-2022, 00:24:30,    173,    0.0,   12.9,   0.00,   0.00, 1005.9,   93.2, -999.0
07-09-2022, 00:24:40,    174,    0.0,   13.0,   0.00,   0.00, 1005.9,   93.2, -999.0
07-09-2022, 00:24:50,    174,    0.0,   12.9,   0.00,   0.00, 1005.9,   93.1, -999.0
07-09-2022, 00:25:00,    174,    0.0,   13.0,   0.00,   0.00, 1005.9,   93.4, -999.0
07-09-2022, 00:25:10,    174,    0.0,   12.9,   0.00,   0.00, 1005.9,   93.6, -999.0
07-09-2022, 00:25:20,    174,    0.0,   12.9,   0.00,   0.00, 1005.9,   93.7, -999.0
07-09-2022, 00:25:30,    173,    0.0,   13.0,   0.00,   0.00, 1005.9,   94.0, -999.0
07-09-2022, 00:25:40,    174,    0.0,   13.0,   0.00,   0.00, 1005.9,   94.2, -999.0
07-09-2022, 00:25:50,    174,    0.0,   13.0,   0.00,   0.00, 1005.9,   95.0, -999.0
07-09-2022, 00:25:59,    174,    0.0,   13.1,   0.00,   0.00, 1005.9,   95.2, -999.0
07-09-2022, 00:26:10,    174,    0.0,   13.1,   0.00,   0.00, 1005.9,   95.3, -999.0
07-09-2022, 00:26:20,    174,    0.0,   13.1,   0.00,   0.00, 1005.9,   95.1, -999.0
07-09-2022, 00:26:29,    174,    0.0,   13.1,   0.00,   0.00, 1005.9,   94.9, -999.0
07-09-2022, 00:26:39,    174,    0.0,   13.1,   0.00,   0.00, 1005.9,   94.9, -999.0
07-09-2022, 00:26:49,    174,    0.0,   13.1,   0.00,   0.00, 1005.9,   94.9, -999.0
07-09-2022, 00:26:59,    174,    0.0,   13.1,   0.00,   0.00, 1005.9,   94.8, -999.0
07-09-2022, 00:27:09,    174,    0.0,   13.2,   0.00,   0.00, 1005.9,   94.8, -999.0
07-09-2022, 00:27:19,    173,    0.0,   13.2,   0.00,   0.00, 1005.9,   94.7, -999.0
07-09-2022, 00:27:29,    174,    0.0,   13.1,   0.00,   0.00, 1005.9,   94.7, -999.0
07-09-2022, 00:27:39,    174,    0.0,   13.2,   0.00,   0.00, 1005.9,   94.5, -999.0
07-09-2022, 00:27:49,    174,    0.0,   13.2,   0.00,   0.00, 1005.9,   94.2, -999.0
07-09-2022, 00:27:59,    173,    0.0,   13.1,   0.00,   0.00, 1005.9,   94.1, -999.0
07-09-2022, 00:28:09,    174,    0.0,   13.2,   0.00,   0.00, 1005.9,   94.3, -999.0
07-09-2022, 00:28:19,    172,    0.0,   13.2,   0.00,   0.00, 1005.9,   94.3, -999.0
07-09-2022, 00:28:29,    174,    0.0,   13.2,   0.00,   0.00, 1005.9,   94.3, -999.0
07-09-2022, 00:28:39,    173,    0.0,   13.2,   0.00,   0.00, 1005.9,   94.2, -999.0
07-09-2022, 00:28:49,    174,    0.0,   13.2,   0.00,   0.00, 1005.9,   94.0, -999.0
07-09-2022, 00:28:59,    174,    0.0,   13.2,   0.00,   0.00, 1005.9,   93.8, -999.0
07-09-2022, 00:29:08,    174,    0.0,   13.1,   0.00,   0.00, 1005.9,   93.6, -999.0
07-09-2022, 00:29:19,    174,    0.0,   13.1,   0.00,   0.00, 1005.9,   93.5, -999.0
07-09-2022, 00:29:28,    174,    0.0,   13.1,   0.00,   0.00, 1005.9,   93.3, -999.0
07-09-2022, 00:29:38,    173,    0.0,   13.1,   0.00,   0.00, 1005.9,   93.1, -999.0
07-09-2022, 00:29:49,    174,    0.0,   13.1,   0.00,   0.00, 1005.9,   93.3, -999.0
07-09-2022, 00:29:58,    174,    0.0,   13.2,   0.00,   0.00, 1005.9,   93.5, -999.0
07-09-2022, 00:30:08,    174,    0.0,   13.1,   0.00,   0.00, 1005.9,   93.6, -999.0
07-09-2022, 00:30:18,    174,    0.0,   13.2,   0.00,   0.00, 1005.9,   93.5, -999.0
07-09-2022, 00:30:28,    173,    0.0,   13.1,   0.00,   0.00, 1005.9,   93.4, -999.0
07-09-2022, 00:30:38,    173,    0.0,   13.2,   0.00,   0.00, 1005.9,   93.3, -999.0
07-09-2022, 00:30:48,    173,    0.0,   13.2,   0.00,   0.00, 1005.9,   93.3, -999.0
07-09-2022, 00:30:58,    174,    0.0,   13.2,   0.00,   0.00, 1005.9,   93.3, -999.0
07-09-2022, 00:31:08,    174,    0.0,   13.1,   0.00,   0.00, 1005.9,   93.4, -999.0
07-09-2022, 00:31:18,    174,    0.0,   13.3,   0.00,   0.00, 1005.9,   93.3, -999.0
07-09-2022, 00:31:28,    174,    0.0,   13.2,   0.00,   0.00, 1005.9,   93.1, -999.0
07-09-2022, 00:31:38,    174,    0.0,   13.1,   0.00,   0.00, 1005.9,   92.9, -999.0
07-09-2022, 00:31:48,    173,    0.0,   13.1,   0.00,   0.00, 1005.9,   92.8, -999.0
07-09-2022, 00:31:58,    174,    0.0,   13.1,   0.00,   0.00, 1005.9,   92.8, -999.0
07-09-2022, 00:32:07,    174,    0.0,   13.1,   0.00,   0.00, 1005.9,   92.8, -999.0
07-09-2022, 00:32:18,    174,    0.0,   13.1,   0.00,   0.00, 1005.9,   93.0, -999.0
07-09-2022, 00:32:28,    174,    0.0,   13.1,   0.00,   0.00, 1005.9,   93.2, -999.0
07-09-2022, 00:32:37,    174,    0.0,   13.2,   0.00,   0.00, 1005.9,   93.2, -999.0
07-09-2022, 00:32:47,    173,    0.0,   13.2,   0.00,   0.00, 1005.9,   93.2, -999.0
07-09-2022, 00:32:58,    174,    0.0,   13.2,   0.00,   0.00, 1005.8,   93.3, -999.0
07-09-2022, 00:33:07,    174,    0.0,   13.2,   0.00,   0.00, 1005.9,   93.1, -999.0
07-09-2022, 00:33:17,    174,    0.0,   13.2,   0.00,   0.00, 1005.9,   93.0, -999.0
07-09-2022, 00:33:27,    173,    0.0,   13.2,   0.00,   0.00, 1005.9,   93.0, -999.0
07-09-2022, 00:33:37,    174,    0.0,   13.3,   0.00,   0.00, 1005.9,   93.0, -999.0
07-09-2022, 00:33:47,    173,    0.0,   13.1,   0.00,   0.00, 1005.9,   92.6, -999.0
07-09-2022, 00:33:57,    174,    0.0,   13.1,   0.00,   0.00, 1005.9,   92.6, -999.0
07-09-2022, 00:34:07,    173,    0.0,   13.1,   0.00,   0.00, 1005.9,   92.5, -999.0
07-09-2022, 00:34:17,    174,    0.0,   13.1,   0.00,   0.00, 1005.9,   92.3, -999.0
07-09-2022, 00:34:27,    174,    0.0,   13.1,   0.00,   0.00, 1005.9,   92.2, -999.0
07-09-2022, 00:34:37,    174,    0.0,   13.1,   0.00,   0.00, 1005.9,   92.2, -999.0
07-09-2022, 00:34:47,    174,    0.0,   13.1,   0.00,   0.00, 1005.9,   92.1, -999.0
07-09-2022, 00:34:57,    174,    0.0,   13.1,   0.00,   0.00, 1005.9,   92.3, -999.0
07-09-2022, 00:35:07,    174,    0.0,   13.0,   0.00,   0.00, 1005.9,   92.7, -999.0
07-09-2022, 00:35:16,    173,    0.0,   13.1,   0.00,   0.00, 1005.9,   93.0, -999.0
07-09-2022, 00:35:27,    173,    0.0,   13.2,   0.00,   0.00, 1005.9,   93.1, -999.0
07-09-2022, 00:35:37,    173,    0.0,   13.2,   0.00,   0.00, 1005.9,   93.1, -999.0
07-09-2022, 00:35:46,    173,    0.0,   13.2,   0.00,   0.00, 1005.9,   93.2, -999.0
07-09-2022, 00:35:56,    173,    0.0,   13.2,   0.00,   0.00, 1005.9,   93.1, -999.0
07-09-2022, 00:36:06,    173,    0.0,   13.2,   0.00,   0.00, 1005.9,   93.0, -999.0
07-09-2022, 00:36:16,    173,    0.0,   13.1,   0.00,   0.00, 1005.9,   92.9, -999.0
07-09-2022, 00:36:26,    173,    0.0,   13.1,   0.00,   0.00, 1005.9,   92.9, -999.0
07-09-2022, 00:36:36,    173,    0.0,   13.2,   0.00,   0.00, 1005.9,   93.0, -999.0
07-09-2022, 00:36:46,    173,    0.0,   13.1,   0.00,   0.00, 1005.9,   93.0, -999.0
07-09-2022, 00:36:56,    173,    0.0,   13.1,   0.00,   0.00, 1005.9,   92.8, -999.0
07-09-2022, 00:37:06,    173,    0.0,   13.1,   0.00,   0.00, 1005.9,   92.8, -999.0
07-09-2022, 00:37:16,    173,    0.0,   13.1,   0.00,   0.00, 1005.9,   92.8, -999.0
07-09-2022, 00:37:26,    173,    0.0,   13.2,   0.00,   0.00, 1005.9,   92.8, -999.0
07-09-2022, 00:37:36,    173,    0.0,   13.2,   0.00,   0.00, 1005.9,   92.8, -999.0
07-09-2022, 00:37:46,    173,    0.0,   13.1,   0.00,   0.00, 1005.9,   92.8, -999.0
07-09-2022, 00:37:56,    173,    0.0,   13.1,   0.00,   0.00, 1005.9,   92.7, -999.0
07-09-2022, 00:38:06,    173,    0.0,   13.1,   0.00,   0.00, 1005.9,   92.6, -999.0
07-09-2022, 00:38:16,    173,    0.0,   13.1,   0.00,   0.00, 1005.9,   92.7, -999.0
07-09-2022, 00:38:25,    173,    0.5,   13.2,   0.00,   0.00, 1006.0,   93.1, -999.0
07-09-2022, 00:38:36,    171,    0.3,   13.2,   0.00,   0.00, 1006.0,   93.3, -999.0
07-09-2022, 00:38:45,    169,    1.4,   13.3,   0.00,   0.00, 1006.1,   93.5, -999.0
07-09-2022, 00:38:55,    168,    0.8,   13.3,   0.00,   0.00, 1006.0,   93.5, -999.0
07-09-2022, 00:39:05,    168,    0.0,   13.2,   0.00,   0.00, 1005.9,   93.1, -999.0
07-09-2022, 00:39:15,    168,    0.0,   13.1,   0.00,   0.00, 1005.9,   93.0, -999.0
07-09-2022, 00:39:25,    169,    0.1,   13.1,   0.00,   0.00, 1006.0,   93.0, -999.0
07-09-2022, 00:39:35,    168,    0.0,   13.2,   0.00,   0.00, 1005.9,   93.0, -999.0
07-09-2022, 00:39:45,    168,    0.0,   13.1,   0.00,   0.00, 1005.9,   92.9, -999.0
07-09-2022, 00:39:55,    168,    0.0,   13.1,   0.00,   0.00, 1005.9,   92.9, -999.0
07-09-2022, 00:40:05,    168,    0.0,   13.0,   0.00,   0.00, 1005.9,   92.8, -999.0
07-09-2022, 00:40:15,    168,    0.0,   13.1,   0.00,   0.00, 1005.9,   92.9, -999.0
07-09-2022, 00:40:25,    168,    0.0,   13.1,   0.00,   0.00, 1005.9,   93.0, -999.0
07-09-2022, 00:40:35,    169,    0.0,   13.0,   0.00,   0.00, 1005.9,   93.0, -999.0
07-09-2022, 00:40:45,    169,    0.0,   13.1,   0.00,   0.00, 1005.9,   92.9, -999.0
07-09-2022, 00:40:55,    168,    0.0,   13.0,   0.00,   0.00, 1005.9,   92.7, -999.0
07-09-2022, 00:41:05,    168,    0.0,   13.1,   0.00,   0.00, 1005.9,   92.5, -999.0
07-09-2022, 00:41:15,    168,    0.0,   13.0,   0.00,   0.00, 1005.9,   92.5, -999.0
07-09-2022, 00:41:24,    168,    0.0,   13.0,   0.00,   0.00, 1005.9,   92.5, -999.0
07-09-2022, 00:41:34,    168,    0.0,   13.0,   0.00,   0.00, 1005.9,   92.4, -999.0
07-09-2022, 00:41:45,    168,    0.0,   13.0,   0.00,   0.00, 1005.9,   92.5, -999.0
07-09-2022, 00:41:54,    169,    0.6,   13.1,   0.00,   0.00, 1006.1,   93.1, -999.0
07-09-2022, 00:42:04,    168,    0.3,   13.1,   0.00,   0.00, 1006.0,   93.2, -999.0
07-09-2022, 00:42:14,    169,    0.0,   13.1,   0.00,   0.00, 1005.9,   93.3, -999.0
07-09-2022, 00:42:24,    169,    0.7,   13.1,   0.00,   0.00, 1006.0,   93.7, -999.0
07-09-2022, 00:42:34,    168,    0.7,   13.1,   0.00,   0.00, 1006.0,   93.7, -999.0
07-09-2022, 00:42:44,    168,    0.0,   13.1,   0.00,   0.00, 1005.9,   93.2, -999.0
07-09-2022, 00:42:54,    168,    0.0,   13.1,   0.00,   0.00, 1005.9,   93.0, -999.0
07-09-2022, 00:43:04,    168,    0.0,   13.0,   0.00,   0.00, 1006.0,   92.8, -999.0
07-09-2022, 00:43:14,    168,    0.4,   13.0,   0.00,   0.00, 1006.0,   93.0, -999.0
07-09-2022, 00:43:24,    169,    0.3,   13.1,   0.00,   0.00, 1006.0,   93.2, -999.0
07-09-2022, 00:43:34,    169,    0.4,   13.1,   0.00,   0.00, 1006.0,   93.6, -999.0
07-09-2022, 00:43:44,    168,    1.0,   13.1,   0.00,   0.00, 1006.0,   93.9, -999.0
07-09-2022, 00:43:54,    133,    1.5,   13.2,   0.00,   0.00, 1006.1,   94.0, -999.0
07-09-2022, 00:44:04,    133,    1.1,   13.2,   0.00,   0.00, 1006.1,   94.1, -999.0
07-09-2022, 00:44:14,    133,    0.3,   13.2,   0.00,   0.00, 1006.0,   94.4, -999.0
07-09-2022, 00:44:24,    133,    0.0,   13.1,   0.00,   0.00, 1005.9,   94.2, -999.0
07-09-2022, 00:44:33,    133,    0.0,   13.1,   0.00,   0.00, 1005.9,   93.8, -999.0
07-09-2022, 00:44:43,    133,    0.0,   13.0,   0.00,   0.00, 1005.9,   93.4, -999.0
07-09-2022, 00:44:54,    132,    0.0,   13.0,   0.00,   0.00, 1005.9,   93.2, -999.0
07-09-2022, 00:45:03,    133,    0.0,   13.0,   0.00,   0.00, 1005.9,   93.2, -999.0
07-09-2022, 00:45:13,    132,    0.0,   13.0,   0.00,   0.00, 1005.9,   93.0, -999.0
07-09-2022, 00:45:24,    133,    0.0,   13.0,   0.00,   0.01, 1005.9,   92.9, -999.0
07-09-2022, 00:45:33,    132,    0.0,   13.0,   0.00,   0.00, 1005.9,   93.0, -999.0
07-09-2022, 00:45:43,    133,    0.0,   13.0,   0.00,   0.00, 1005.9,   93.5, -999.0
07-09-2022, 00:45:53,    132,    0.0,   13.1,   0.00,   0.00, 1005.9,   94.3, -999.0
07-09-2022, 00:46:03,    132,    0.0,   13.1,   0.00,   0.00, 1005.9,   94.2, -999.0
07-09-2022, 00:46:13,    133,    0.0,   12.9,   0.00,   0.00, 1005.9,   94.2, -999.0
07-09-2022, 00:46:23,    133,    0.0,   13.1,   0.00,   0.00, 1006.0,   94.1, -999.0
07-09-2022, 00:46:33,    133,    0.1,   13.1,   0.00,   0.00, 1006.0,   94.3, -999.0
07-09-2022, 00:46:43,    132,    0.0,   13.1,   0.00,   0.00, 1005.9,   94.2, -999.0